When you browse on this site, cookies collect data to enhance your experience and personalize the content and advertising you see.
Visit our Privacy Policy to learn more. By continuing to use the site, you agree to this use of cookies and data.
  • En España
  • Lista de países
  • Para 7 días
  • Temperatura del agua
  • El tiempo en el mapa
  • Informadores
  • user-avatar
    Iniciar sesión

    Tiempo cada hora Podgornyy

    Hoy, 19 Agosto, Lunes

    Tiempo Temperatura Precipitaciones Viento Presión Humedad
    00:00 +14°C° 0 mm 3 mps 737 mmHg 97%
    01:00 +13°C° 0 mm 3 mps 737 mmHg 97%
    02:00 +13°C° 0 mm 3 mps 738 mmHg 96%
    03:00 +13°C° 0 mm 3 mps 738 mmHg 96%
    04:00 +13°C° 0 mm 3 mps 738 mmHg 96%
    05:00 +13°C° 0 mm 3 mps 738 mmHg 96%
    06:00 +16°C° 0 mm 3 mps 739 mmHg 92%
    07:00 +17°C° 0 mm 3 mps 739 mmHg 87%
    08:00 +18°C° 0 mm 3 mps 739 mmHg 82%
    09:00 +20°C° 0 mm 3 mps 740 mmHg 77%
    10:00 +21°C° 0 mm 4 mps 740 mmHg 72%
    11:00 +22°C° 0 mm 4 mps 740 mmHg 67%
    12:00 +24°C° 0 mm 3 mps 740 mmHg 65%
    13:00 +24°C° 0 mm 3 mps 741 mmHg 62%
    14:00 +25°C° 0 mm 3 mps 741 mmHg 60%
    15:00 +25°C° 0 mm 2 mps 741 mmHg 63%
    16:00 +25°C° 0 mm 2 mps 741 mmHg 66%
    17:00 +24°C° 0 mm 1 mps 741 mmHg 70%
    18:00 +23°C° 0 mm 1 mps 741 mmHg 74%
    19:00 +21°C° 0 mm 1 mps 741 mmHg 78%
    20:00 +19°C° 0 mm 1 mps 742 mmHg 82%
    21:00 +19°C° 0 mm 1 mps 742 mmHg 84%
    22:00 +18°C° 0 mm 1 mps 742 mmHg 86%
    23:00 +18°C° 0 mm 1 mps 742 mmHg 88%

    Mañana, 20 Agosto, Martes

    Tiempo Temperatura Precipitaciones Viento Presión Humedad
    00:00 +18°C° 0 mm 1 mps 742 mmHg 88%
    01:00 +16°C° 0 mm 1 mps 742 mmHg 88%
    02:00 +16°C° 0 mm 1 mps 742 mmHg 88%
    03:00 +15°C° 0 mm 0 mps 743 mmHg 88%
    04:00 +15°C° 0 mm 0 mps 743 mmHg 88%
    05:00 +15°C° 0 mm 0 mps 743 mmHg 87%
    06:00 +16°C° 0 mm 0 mps 743 mmHg 82%
    07:00 +18°C° 0 mm 0 mps 743 mmHg 76%
    08:00 +22°C° 0 mm 1 mps 743 mmHg 70%
    09:00 +23°C° 0 mm 1 mps 743 mmHg 65%
    10:00 +24°C° 0 mm 1 mps 744 mmHg 60%
    11:00 +25°C° 0 mm 1 mps 744 mmHg 55%
    12:00 +26°C° 0 mm 1 mps 743 mmHg 54%
    13:00 +26°C° 0 mm 1 mps 743 mmHg 52%
    14:00 +27°C° 0 mm 1 mps 743 mmHg 50%
    15:00 +27°C° 0 mm 1 mps 743 mmHg 54%
    16:00 +26°C° 0 mm 1 mps 743 mmHg 58%
    17:00 +26°C° 0 mm 1 mps 743 mmHg 62%
    18:00 +24°C° 0 mm 1 mps 743 mmHg 66%
    19:00 +23°C° 0 mm 1 mps 744 mmHg 70%
    20:00 +19°C° 0 mm 0 mps 744 mmHg 73%
    21:00 +18°C° 0 mm 0 mps 744 mmHg 75%
    22:00 +18°C° 0 mm 0 mps 744 mmHg 76%
    23:00 +18°C° 0 mm 0 mps 744 mmHg 77%

    Pasado mañana, 21 Agosto, Miércoles

    Tiempo Temperatura Precipitaciones Viento Presión Humedad
    00:00 +17°C° 0 mm 0 mps 744 mmHg 78%
    01:00 +17°C° 0 mm 0 mps 744 mmHg 79%
    02:00 +17°C° 0 mm 0 mps 744 mmHg 80%
    03:00 +17°C° 0 mm 0 mps 744 mmHg 80%
    04:00 +16°C° 0 mm 0 mps 744 mmHg 81%
    05:00 +16°C° 0 mm 0 mps 744 mmHg 82%
    06:00 +18°C° 0 mm 0 mps 744 mmHg 77%
    07:00 +20°C° 0 mm 0 mps 744 mmHg 72%
    08:00 +22°C° 0 mm 0 mps 745 mmHg 67%
    09:00 +23°C° 0 mm 0 mps 745 mmHg 64%
    10:00 +24°C° 0 mm 0 mps 745 mmHg 61%
    11:00 +25°C° 0 mm 0 mps 745 mmHg 57%
    12:00 +28°C° 0 mm 1 mps 744 mmHg 56%
    13:00 +28°C° 0 mm 1 mps 744 mmHg 54%
    14:00 +28°C° 0 mm 1 mps 744 mmHg 53%
    15:00 +28°C° 0 mm 1 mps 744 mmHg 57%
    16:00 +28°C° 0 mm 1 mps 743 mmHg 60%
    17:00 +27°C° 0 mm 1 mps 743 mmHg 64%
    18:00 +26°C° 0 mm 1 mps 743 mmHg 68%
    19:00 +24°C° 0 mm 1 mps 743 mmHg 73%
    20:00 +21°C° 0 mm 2 mps 743 mmHg 77%
    21:00 +22°C° 0 mm 1 mps 743 mmHg 78%
    22:00 +21°C° 0 mm 1 mps 743 mmHg 80%
    23:00 +21°C° 0 mm 1 mps 743 mmHg 82%

    22 Agosto, Jueves

    Tiempo Temperatura Precipitaciones Viento Presión Humedad
    00:00 +20°C° 0 mm 1 mps 743 mmHg 83%
    01:00 +20°C° 0 mm 1 mps 743 mmHg 84%
    02:00 +19°C° 0 mm 1 mps 742 mmHg 85%
    03:00 +19°C° 0 mm 1 mps 742 mmHg 85%
    04:00 +19°C° 0 mm 1 mps 742 mmHg 86%
    05:00 +19°C° 0 mm 1 mps 742 mmHg 86%
    06:00 +21°C° 0 mm 1 mps 742 mmHg 81%
    07:00 +22°C° 0 mm 1 mps 742 mmHg 76%
    08:00 +24°C° 0 mm 1 mps 742 mmHg 71%
    09:00 +25°C° 0 mm 1 mps 742 mmHg 67%
    10:00 +26°C° 0 mm 1 mps 742 mmHg 63%
    11:00 +25°C° 0 mm 0 mps 742 mmHg 59%
    12:00 +27°C° 0 mm 1 mps 742 mmHg 57%
    13:00 +28°C° 0 mm 1 mps 741 mmHg 55%
    14:00 +28°C° 0 mm 1 mps 741 mmHg 54%
    15:00 +27°C° 0 mm 1 mps 741 mmHg 57%
    16:00 +27°C° 0 mm 1 mps 741 mmHg 59%
    17:00 +27°C° 0 mm 1 mps 741 mmHg 62%
    18:00 +25°C° 0 mm 1 mps 741 mmHg 65%
    19:00 +24°C° 0 mm 1 mps 741 mmHg 68%
    20:00 +22°C° 0 mm 1 mps 741 mmHg 71%
    21:00 +22°C° 0 mm 1 mps 741 mmHg 75%
    22:00 +20°C° 0 mm 2 mps 741 mmHg 79%
    23:00 +19°C° 0 mm 2 mps 741 mmHg 83%

    23 Agosto, Viernes

    Tiempo Temperatura Precipitaciones Viento Presión Humedad
    00:00 +19°C° 0 mm 2 mps 741 mmHg 86%
    01:00 +18°C° 0 mm 2 mps 741 mmHg 90%
    02:00 +18°C° 0 mm 2 mps 741 mmHg 94%
    03:00 +18°C° 0.2 mm 3 mps 741 mmHg 95%
    04:00 +18°C° 0.2 mm 3 mps 741 mmHg 96%
    05:00 +18°C° 0.2 mm 3 mps 741 mmHg 97%
    06:00 +18°C° 0.4 mm 3 mps 742 mmHg 96%
    07:00 +18°C° 0.4 mm 3 mps 742 mmHg 95%
    08:00 +18°C° 0.4 mm 3 mps 742 mmHg 94%
    09:00 +18°C° 1.1 mm 3 mps 742 mmHg 93%
    10:00 +19°C° 1.1 mm 3 mps 742 mmHg 92%
    11:00 +19°C° 1.1 mm 3 mps 742 mmHg 92%
    12:00 +18°C° 2.5 mm 3 mps 742 mmHg 93%
    13:00 +18°C° 2.5 mm 4 mps 742 mmHg 94%
    14:00 +17°C° 2.5 mm 4 mps 742 mmHg 95%
    15:00 +17°C° 0.7 mm 4 mps 742 mmHg 94%
    16:00 +17°C° 0.7 mm 4 mps 742 mmHg 93%
    17:00 +17°C° 0.7 mm 4 mps 742 mmHg 93%
    18:00 +16°C° 0 mm 3 mps 743 mmHg 93%
    19:00 +16°C° 0 mm 3 mps 743 mmHg 94%
    20:00 +16°C° 0 mm 2 mps 743 mmHg 94%
    21:00 +15°C° 0 mm 2 mps 743 mmHg 93%
    22:00 +14°C° 0 mm 3 mps 743 mmHg 92%
    23:00 +13°C° 0 mm 3 mps 744 mmHg 91%

    24 Agosto, Sábado

    Tiempo Temperatura Precipitaciones Viento Presión Humedad
    00:00 +13°C° 0 mm 3 mps 744 mmHg 92%
    01:00 +12°C° 0 mm 3 mps 744 mmHg 92%
    02:00 +12°C° 0 mm 3 mps 744 mmHg 93%
    03:00 +12°C° 0 mm 3 mps 744 mmHg 92%
    04:00 +12°C° 0 mm 3 mps 744 mmHg 91%
    05:00 +11°C° 0 mm 3 mps 745 mmHg 90%
    06:00 +13°C° 0 mm 3 mps 745 mmHg 85%
    07:00 +14°C° 0 mm 3 mps 745 mmHg 81%
    08:00 +17°C° 0 mm 3 mps 745 mmHg 77%
    09:00 +18°C° 0 mm 3 mps 745 mmHg 72%
    10:00 +19°C° 0 mm 3 mps 746 mmHg 66%
    11:00 +21°C° 0 mm 3 mps 746 mmHg 61%
    12:00 +21°C° 0 mm 3 mps 746 mmHg 60%
    13:00 +21°C° 0 mm 3 mps 746 mmHg 59%
    14:00 +22°C° 0 mm 3 mps 746 mmHg 58%
    15:00 +21°C° 0 mm 3 mps 746 mmHg 62%
    16:00 +21°C° 0 mm 3 mps 746 mmHg 66%
    17:00 +20°C° 0 mm 2 mps 746 mmHg 69%
    18:00 +19°C° 0 mm 2 mps 746 mmHg 72%
    19:00 +17°C° 0 mm 2 mps 746 mmHg 75%
    20:00 +16°C° 0 mm 2 mps 746 mmHg 77%
    21:00 +15°C° 0 mm 2 mps 746 mmHg 79%
    22:00 +15°C° 0 mm 1 mps 746 mmHg 80%
    23:00 +14°C° 0 mm 1 mps 746 mmHg 81%
    Mostrar más